Weather History for Los Angeles, CA

Change the Weather History Date:

Friday, March 14, 2014

  Actual Average Record
Temperature  
Mean Temperature 60 °F 58 °F  
Max Temperature 66 °F 64 °F 86 °F (1951)
Min Temperature 53 °F 52 °F 41 °F (1962)
Degree Days  
Heating Degree Days 5 7  
Month to date heating degree days 41 101  
Since 1 July heating degree days 596 1030  
Cooling Degree Days 0 0  
Month to date cooling degree days 14 0  
Year to date cooling degree days 30 9  
Growing Degree Days 8 (Base 50)    
Moisture  
Dew Point 51 °F    
Average Humidity 70    
Maximum Humidity 83    
Minimum Humidity 56    
Precipitation  
Precipitation 0.00 in 0.06 in 0.43 in (1982)
Month to date precipitation 0.35 1.07  
Year to date precipitation 3.14 7.03  
Since 1 July precipitation 4.18 11.04  
Sea Level Pressure  
Sea Level Pressure 30.07 in    
Wind  
Wind Speed 5 mph (SW)    
Max Wind Speed 13 mph    
Max Gust Speed 17 mph    
Visibility 9 miles    
Events Fog    
T = Trace of Precipitation, MM = Missing Value Source: NWS Daily Summary

Daily Weather History Graph

Daily Weather History Graph

Search for Another Location

Airport:

Trip Planner

Search our weather history database for the weather conditions in past years. The results will help you decide how hot, cold, wet, or windy it might be!

Date:

Astronomy

Mar. 14, 2014 Rise Set
Actual Time 7:05 AM PDT 7:00 PM PDT
Civil Twilight 6:40 AM PDT 7:25 PM PDT
Nautical Twilight 6:11 AM PDT 7:54 PM PDT
Astronomical Twilight 5:42 AM PDT 8:23 PM PDT
Moon 5:30 PM PDT (3/14) 5:43 AM PDT (3/14)
Length of Visible Light 12h 45m
Length of Day
11h 55m
Waxing Gibbous, 96% of the Moon is Illuminated
Mar 14
Waxing Gibbous
Mar 16
Full
Mar 23
Last Quarter
Mar 30
New
Apr 7
First Quarter

Hourly Weather History & Observations

Time (PDT) Temp. Dew Point Humidity Pressure Visibility Wind Dir Wind Speed Gust Speed Precip Events Conditions
12:53 AM 59.0 °F 51.1 °F 75% 30.02 in 10.0 mi Calm Calm - N/A   Partly Cloudy
1:53 AM 57.9 °F 50.0 °F 75% 30.03 in 10.0 mi Calm Calm - N/A   Partly Cloudy
2:53 AM 57.9 °F 51.1 °F 78% 30.03 in 10.0 mi Calm Calm - N/A   Partly Cloudy
3:53 AM 57.0 °F 50.0 °F 77% 30.02 in 10.0 mi North 3.5 mph - N/A   Partly Cloudy
4:53 AM 54.0 °F 48.0 °F 80% 30.02 in 10.0 mi East 3.5 mph - N/A   Partly Cloudy
5:53 AM 54.0 °F 48.0 °F 80% 30.04 in 10.0 mi ESE 3.5 mph - N/A   Partly Cloudy
6:53 AM 55.0 °F 48.0 °F 77% 30.05 in 7.0 mi East 3.5 mph - N/A Fog Patches of Fog
7:34 AM 55.4 °F 48.2 °F 77% 30.07 in 7.0 mi Calm Calm - N/A Fog Patches of Fog
7:53 AM 57.0 °F 48.9 °F 74% 30.07 in 7.0 mi Calm Calm - N/A Fog Patches of Fog
8:53 AM 57.9 °F 48.9 °F 72% 30.09 in 6.0 mi ESE 3.5 mph - N/A Fog Patches of Fog
9:41 AM 60.8 °F 50.0 °F 68% 30.11 in 5.0 mi Calm Calm - N/A   Haze
9:53 AM 60.1 °F 50.0 °F 69% 30.11 in 5.0 mi Calm Calm - N/A   Haze
10:53 AM 63.0 °F 50.0 °F 63% 30.11 in 5.0 mi Calm Calm - N/A   Haze
11:53 AM 64.0 °F 51.1 °F 63% 30.11 in 5.0 mi Variable 3.5 mph - N/A   Haze
12:53 PM 66.0 °F 50.0 °F 56% 30.11 in 10.0 mi West 9.2 mph - N/A   Partly Cloudy
1:53 PM 64.9 °F 52.0 °F 63% 30.09 in 10.0 mi SW 9.2 mph - N/A   Scattered Clouds
2:53 PM 66.0 °F 52.0 °F 60% 30.06 in 10.0 mi West 10.4 mph - N/A   Scattered Clouds
3:53 PM 64.9 °F 53.1 °F 65% 30.06 in 10.0 mi West 10.4 mph - N/A   Mostly Cloudy
4:53 PM 63.0 °F 52.0 °F 67% 30.05 in 10.0 mi SW 10.4 mph - N/A   Scattered Clouds
5:53 PM 64.0 °F 52.0 °F 65% 30.05 in 10.0 mi Variable 6.9 mph - N/A   Mostly Cloudy
6:53 PM 62.1 °F 52.0 °F 70% 30.06 in 10.0 mi West 9.2 mph - N/A   Scattered Clouds
7:53 PM 61.0 °F 53.1 °F 75% 30.07 in 10.0 mi West 5.8 mph - N/A   Mostly Cloudy
8:53 PM 61.0 °F 52.0 °F 72% 30.10 in 10.0 mi WSW 6.9 mph - N/A   Scattered Clouds
9:53 PM 61.0 °F 53.1 °F 75% 30.11 in 10.0 mi WSW 5.8 mph - N/A   Partly Cloudy
10:53 PM 60.1 °F 53.1 °F 78% 30.12 in 9.0 mi SSE 4.6 mph - N/A   Scattered Clouds
11:53 PM 62.1 °F 53.1 °F 72% 30.12 in 9.0 mi ESE 3.5 mph - N/A   Scattered Clouds